Main page
METAR-TAF:

METAR-TAF

Airports :

Carmi Municipal Airport

Carmi, Illinois, United States

latitude: 38-05-22N, longitude: 088-07-23W, elevation: 387 ft

Current weather observation

The report was made 28 minutes ago, at 03:15 UTC
Wind 8 mph from the South
Temperature 50°F
Humidity 62%
Pressure 30.06 in. Hg
Visibility: 10 miles
Clear sky

METAR: KCUL 230315Z AUTO 19007KT 10SM CLR 10/03 A3006 RMK AO2 T01040032

Time: 22:43 (03:43 UTC)


TAF: missing

Weather observations and forecasts of more than 4000 airports (METAR and TAF reports).

The available stations are represented by yellow and red dots on the map.

Hover mouse over dot to see the name of the station.

Then click to see weather observations and forecasts.

To change the map : click on the green buttons with a black cross to zoom in, on the green button with a dash to zoom out, or on the green arrows for adjacent maps.


METAR-TAF: